Date,TemperatureHighF,TemperatureAvgF,TemperatureLowF,DewpointHighF,DewpointAvgF,DewpointLowF,HumidityHigh,HumidityAvg,HumidityLow,PressureMaxIn,PressureMinIn,WindSpeedMaxMPH,WindSpeedAvgMPH,GustSpeedMaxMPH,PrecipitationSumIn
2013-3-1,27.0,22.0,15.0,20.0,16.9,9.0,88,81,70,30.22,30.09,10,2,16,0.01
2013-3-2,25.0,16.2,9.0,15.0,9.7,4.0,85,75,65,30.21,30.12,6,2,14,0.01
2013-3-3,26.0,17.6,6.0,12.0,7.0,3.0,86,64,45,30.12,30.06,5,1,9,0.03
2013-3-4,33.0,22.0,10.0,24.0,15.8,5.0,85,77,66,30.09,30.01,7,2,14,0.01
2013-3-5,30.0,26.7,24.0,26.0,23.5,22.0,93,88,76,30.06,29.86,9,4,19,0.01
2013-3-6,31.0,27.6,24.0,27.0,24.1,20.0,91,87,81,30.27,30.06,6,3,12,0.08
2013-3-7,32.0,23.2,13.0,23.0,17.5,10.0,89,79,67,30.39,30.27,5,1,8,0.25
2013-3-8,37.0,26.9,15.0,28.0,21.5,12.0,90,80,68,30.42,30.25,9,2,15,0.03
2013-3-9,40.0,33.9,27.0,34.0,29.5,23.0,93,84,72,30.25,29.76,6,1,15,0.03
2013-3-10,39.0,36.2,34.0,38.0,34.9,33.0,96,95,93,29.79,29.60,11,3,22,0.96
2013-3-11,34.0,32.1,29.0,33.0,30.9,25.0,96,95,90,29.70,29.51,8,2,15,0.54
2013-3-12,32.0,28.1,24.0,25.0,22.3,18.0,91,79,65,29.96,29.70,8,4,19,0.03
2013-3-13,33.0,24.6,18.0,19.0,13.4,10.0,81,63,41,30.26,29.96,9,4,18,0.01
2013-3-14,33.0,25.4,16.0,25.0,17.9,10.0,88,73,60,30.26,30.01,8,2,13,0.01
2013-3-15,34.0,29.5,25.0,32.0,26.7,22.0,93,90,85,30.01,29.80,6,2,12,0.05
2013-3-16,30.0,24.6,19.0,25.0,19.4,15.0,92,81,66,30.10,29.79,7,3,14,0.02
2013-3-17,31.0,21.6,14.0,19.0,12.9,6.0,79,69,58,30.24,29.98,7,3,14,0.01
2013-3-18,31.0,26.6,17.0,29.0,22.9,11.0,91,86,76,29.98,29.52,10,2,23,0.17
2013-3-19,29.0,19.4,13.0,14.0,9.7,7.0,79,67,48,29.98,29.66,11,6,23,0.02
2013-3-20,20.0,14.3,8.0,8.0,3.3,-2.0,65,61,54,30.02,29.97,11,4,18,0.02
2013-3-21,29.0,17.9,9.0,14.0,7.7,2.0,75,64,51,30.01,29.96,7,2,12,0.00
2013-3-22,34.0,21.6,13.0,18.0,12.3,6.0,76,67,49,30.04,29.98,4,1,8,0.00
2013-3-23,36.0,26.3,17.0,22.0,17.6,13.0,85,70,54,30.11,30.03,6,1,10,0.00
2013-3-24,30.0,28.7,27.0,27.0,24.3,21.0,91,84,75,30.04,29.77,9,4,19,0.04
2013-3-25,34.0,29.4,22.0,26.0,22.8,17.0,84,76,69,30.06,29.80,7,3,15,0.01
2013-3-26,41.0,35.0,30.0,29.0,25.7,23.0,77,69,58,30.21,30.06,6,2,11,0.00
2013-3-27,42.0,35.2,28.0,27.0,23.8,21.0,75,64,46,30.28,30.21,6,2,12,0.01
2013-3-28,44.0,34.0,26.0,27.0,21.8,19.0,75,62,40,30.31,30.25,6,1,10,0.00
2013-3-29,45.0,32.7,23.0,28.0,23.2,19.0,87,69,48,30.30,30.19,4,0,7,0.00
2013-3-30,51.0,39.6,31.0,40.0,30.9,-99.9,90,74,62,30.19,29.78,11,2,16,0.02
2013-3-31,46.0,38.5,32.0,40.0,33.1,20.0,93,82,60,29.87,29.68,10,4,19,0.01